User: anonymous   Login
Location: Unspecified
(0.0000°N, 0.0000°E)
Time: 13:28:45
(UTC+00:00)
Language:

USA 250 - Orbit

View from above orbital plane
View from above orbital plane
View from above satellite
View from above satellite

Ground track
Ground track

The orbit data is extracted from the following two-line orbital elements,

1 39652U 14020A   20258.81191256 0.00000000  00000-0  00000-0 0    05
2 39652   1.4148   8.5317 0004000   9.9482 350.1083  1.00270000    05
Epoch (UTC): 14 September 2020 19:29:09
Eccentricity: 0.0004000
inclination: 1.4148°
perigee height: 35770 km
apogee height: 35803 km
right ascension of ascending node: 8.5317°
argument of perigee: 9.9482°
revolutions per day: 1.00270000
mean anomaly at epoch: 350.1083°
orbit number at epoch: 0

The dashed part of the orbit path shows where the satellite is in the earth's shadow,  

DLR